Simultaneous Nadir Overpasses (SNOs) Predictions

Prediction of SNOs between GOES-14 and NOAA-20 Satellite Orbit:

Table of predicted SNOs for the next 14.0 days since TLE Epoch: 9/23/2023
Index Date Time (GOES-14) GOES-14 Lat,Lon NOAA-20 Lat,Lon Distance(km) Time Diff (sec)
1 09/23/2023 20:52:58 -0.32,-108.52 -1.12,-112.07 405.00 80
2 09/24/2023 20:36:52 -0.33,-108.52 -0.10,-107.54 111.75 80
3 09/26/2023 08:55:58 0.30,-108.60 1.26,-112.80 479.59 80
4 09/27/2023 08:39:53 0.31,-108.60 0.24,-108.27 37.24 80
5 09/29/2023 20:40:22 -0.30,-108.51 -0.41,-109.04 59.88 80
6 09/30/2023 20:24:15 -0.31,-108.51 0.57,-104.49 457.39 80
7 10/02/2023 08:43:23 0.29,-108.60 0.52,-109.78 133.41 80
8 10/03/2023 08:27:16 0.30,-108.60 -0.46,-105.23 383.60 80
9 10/04/2023 20:46:30 -0.27,-108.51 -0.73,-110.53 231.17 80
10 10/05/2023 20:30:25 -0.28,-108.50 0.31,-106.00 285.84 80
